This is the latest recevied weather packets stored in our database for station/object G1OCN-WX. If no packets are shown the sender has not sent any weather packets the latest 1 day(s).
| Time | Temp. | Humidity | Pressure | Rain* | Wind** | Luminosity | Snow |
|---|---|---|---|---|---|---|---|
| 1778069622 | 12.78° C | 61% | 1014.3 hPa | 0 mm | - | - | - |
| 1778069562 | 12.78° C | 61% | 1014.3 hPa | 0 mm | - | - | - |
| 1778068661 | 12.22° C | 64% | 1014.4 hPa | 0 mm | - | - | - |
| 1778068601 | 12.22° C | 65% | 1014.3 hPa | 0 mm | - | - | - |
| 1778068541 | 12.22° C | 64% | 1014.4 hPa | 0 mm | - | - | - |
| 1778068481 | 12.22° C | 65% | 1014.4 hPa | 0 mm | - | - | - |
| 1778068421 | 12.22° C | 65% | 1014.4 hPa | 0 mm | - | - | - |
| 1778068000 | 11.67° C | 63% | 1014.4 hPa | 0 mm | - | - | - |
| 1778067820 | 11.67° C | 64% | 1014.4 hPa | 0 mm | - | - | - |
| 1778067760 | 11.67° C | 65% | 1014.4 hPa | 0 mm | - | - | - |
| 1778067700 | 11.67° C | 66% | 1014.4 hPa | 0 mm | - | - | - |
| 1778067640 | 11.67° C | 65% | 1014.4 hPa | 0 mm | - | - | - |
| 1778066979 | 11.11° C | 66% | 1014.4 hPa | 0 mm | - | - | - |
| 1778066919 | 11.11° C | 65% | 1014.5 hPa | 0 mm | - | - | - |
| 1778066859 | 11.11° C | 66% | 1014.5 hPa | 0 mm | - | - | - |
| 1778066769 | 11.11° C | 68% | 1014.5 hPa | 0 mm | - | - | - |
| 1778066709 | 11.11° C | 68% | 1014.4 hPa | 0 mm | - | - | - |
| 1778066348 | 11.11° C | 67% | 1014.5 hPa | 0 mm | - | - | - |
| 1778066288 | 11.11° C | 68% | 1014.5 hPa | 0 mm | - | - | - |
| 1778066168 | 10.56° C | 66% | 1014.4 hPa | 0 mm | - | - | - |
| 1778065988 | 11.11° C | 68% | 1014.4 hPa | 0 mm | - | - | - |
| 1778065928 | 10.56° C | 68% | 1014.4 hPa | 0 mm | - | - | - |
| 1778065868 | 10.56° C | 68% | 1014.5 hPa | 0 mm | - | - | - |
| 1778065718 | 11.11° C | 67% | 1014.4 hPa | 0 mm | - | - | - |
| 1778065177 | 10.56° C | 70% | 1014.4 hPa | 0 mm | - | - | - |
* Rain latest hour (hover to see other rain measurements)
** Current wind speed in m/s (hover to see current wind gust speed)